FW2365 Weather Reports


time (UTC)temp
C
wind
direction
speed
KPH
gust
KPH
rain 1hr
cm
rain 24hr
cm
rain mn
cm
humidity
%
barometer
mb
20260506002538 10 309 0.0 3.2 0.00 0.00 0.00 73 1012.5
20260506002036 10 168 0.0 3.2 0.00 0.00 0.00 73 1012.6
20260506001545 10 168 0.0 4.8 0.00 0.00 0.00 73 1012.5
20260506001035 10 168 0.0 4.8 0.00 0.00 0.00 73 1012.5
20260506000535 10 168 1.6 4.8 0.00 0.00 0.00 72 1012.6
20260506000052 10 168 0.0 4.8 0.00 0.00 0.00 72 1012.5
20260505235537 10 168 1.6 4.8 0.00 0.00 0.00 72 1012.5
20260505235037 10 352 0.0 3.2 0.00 0.00 0.00 72 1012.5
20260505234634 10 352 0.0 3.2 0.00 0.00 0.00 71 1012.6
20260505234031 10 352 0.0 3.2 0.00 0.00 0.00 70 1012.6
20260505233631 11 352 0.0 3.2 0.00 0.00 0.00 68 1012.7
20260505233028 11 287 0.0 3.2 0.00 0.00 0.00 69 1012.8
20260505232529 12 287 0.0 3.2 0.00 0.00 0.00 67 1012.8
20260505232111 12 287 0.0 3.2 0.00 0.00 0.00 69 1012.8
20260505225548 13 257 8.0 16.1 0.00 0.00 0.00 67 1012.6
20260505225048 13 285 6.4 17.7 0.00 0.00 0.00 67 1012.6
20260505224550 13 267 8.0 20.9 0.00 0.00 0.00 67 1012.5
20260505224044 13 281 3.2 20.9 0.00 0.00 0.00 67 1012.5
20260505223545 13 282 8.0 20.9 0.00 0.00 0.00 67 1012.5
20260505223043 13 304 6.4 17.7 0.00 0.00 0.00 67 1012.4
20260505222544 13 253 6.4 17.7 0.00 0.00 0.00 67 1012.4
20260505222047 13 270 9.7 17.7 0.00 0.00 0.00 67 1012.4
20260505221548 13 283 11.3 19.3 0.00 0.00 0.00 68 1012.4
20260505221039 13 280 8.0 19.3 0.00 0.00 0.00 68 1012.3
20260505220539 13 304 6.4 19.3 0.00 0.00 0.00 70 1012.3
20260505220038 13 282 8.0 16.1 0.00 0.00 0.00 71 1012.2
20260505215538 13 271 4.8 12.9 0.00 0.00 0.00 71 1012.2
20260505215036 13 288 4.8 14.5 0.00 0.00 0.00 71 1012.2
20260505214544 12 292 3.2 8.0 0.00 0.00 0.00 71 1012.1
20260505214037 12 304 0.0 8.0 0.00 0.00 0.00 71 1012.2
20260505213536 12 295 1.6 4.8 0.00 0.00 0.00 71 1012.2
20260505213036 12 161 0.0 3.2 0.00 0.00 0.00 71 1012.1
20260505212536 12 196 1.6 4.8 0.00 0.00 0.00 66 1012.1
20260505212035 12 196 0.0 4.8 0.00 0.00 0.00 69 1012.0
20260505211601 12 197 1.6 3.2 0.00 0.00 0.00 63 1012.1
20260505211035 12 197 0.0 3.2 0.00 0.00 0.00 62 1012.0
20260505210535 12 243 0.0 3.2 0.00 0.00 0.00 62 1011.9
20260505210041 12 243 1.6 3.2 0.00 0.00 0.00 62 1011.9
20260505205535 12 243 0.0 3.2 0.00 0.00 0.00 61 1011.8
20260505205037 12 243 0.0 3.2 0.00 0.00 0.00 63 1011.7
20260505204544 12 197 0.0 3.2 0.00 0.00 0.00 63 1011.6
20260505204035 12 197 0.0 3.2 0.00 0.00 0.00 64 1011.5
20260505203534 12 197 0.0 3.2 0.00 0.00 0.00 63 1011.4
20260505203034 12 197 0.0 3.2 0.00 0.00 0.00 63 1011.4
20260505202535 13 197 0.0 3.2 0.00 0.00 0.00 60 1011.3
20260505202034 13 197 0.0 4.8 0.00 0.00 0.00 59 1011.2
20260505201538 13 197 0.0 4.8 0.00 0.00 0.00 57 1011.1
20260505201030 13 197 0.0 3.2 0.00 0.00 0.00 57 1011.0
20260505200126 13 197 0.0 3.2 0.00 0.00 0.00 56 1010.9
20260505195514 13 197 0.0 3.2 0.00 0.00 0.00 57 1010.8
20260505195013 13 197 0.0 3.2 0.00 0.00 0.00 57 1010.7
20260505194514 13 197 0.0 3.2 0.00 0.00 0.00 57 1010.6
20260505194016 13 197 0.0 3.2 0.00 0.00 0.00 57 1010.6
20260505193514 13 197 0.0 3.2 0.00 0.00 0.00 57 1010.5
20260505193013 13 197 0.0 3.2 0.00 0.00 0.00 57 1010.4
20260505192512 13 197 0.0 3.2 0.00 0.00 0.00 57 1010.4
20260505192013 14 197 0.0 3.2 0.00 0.00 0.00 58 1010.4
20260505191515 14 197 0.0 3.2 0.00 0.00 0.00 58 1010.3
20260505191013 15 197 0.0 3.2 0.00 0.00 0.00 55 1010.2
20260505190512 15 197 1.6 3.2 0.00 0.00 0.00 55 1010.2
20260505190013 15 169 0.0 4.8 0.00 0.00 0.00 55 1010.2
20260505185513 15 169 0.0 6.4 0.00 0.00 0.00 55 1010.1
20260505185012 15 162 0.0 3.2 0.00 0.00 0.00 54 1010.0
20260505184511 15 162 0.0 4.8 0.00 0.00 0.00 54 1010.0
20260505184012 15 162 1.6 4.8 0.00 0.00 0.00 53 1009.9
20260505183514 15 162 1.6 4.8 0.00 0.00 0.00 54 1009.8
20260505183014 16 162 0.0 3.2 0.00 0.00 0.00 51 1009.7
20260505182513 16 162 0.0 3.2 0.00 0.00 0.00 52 1009.7
20260505182013 16 162 0.0 6.4 0.00 0.00 0.00 48 1009.6
20260505181510 16 162 3.2 6.4 0.00 0.00 0.00 49 1009.5
20260505181012 16 277 3.2 6.4 0.00 0.00 0.00 49 1009.3
20260505180510 16 276 3.2 6.4 0.00 0.00 0.00 49 1009.2
20260505180010 16 229 0.0 3.2 0.00 0.00 0.00 49 1009.3
20260505175509 16 229 0.0 3.2 0.00 0.00 0.00 50 1009.3
20260505175009 16 230 0.0 3.2 0.00 0.00 0.00 51 1009.2
20260505174509 16 230 0.0 3.2 0.00 0.00 0.00 50 1009.1
20260505174010 16 230 1.6 3.2 0.00 0.00 0.00 49 1009.1
20260505173510 16 230 0.0 3.2 0.00 0.00 0.00 49 1009.0
20260505173009 16 230 0.0 3.2 0.00 0.00 0.00 49 1009.1
20260505172512 16 230 0.0 3.2 0.00 0.00 0.00 48 1009.1
20260505172008 16 230 0.0 3.2 0.00 0.00 0.00 50 1009.2
20260505171516 16 230 0.0 3.2 0.00 0.00 0.00 49 1009.2
20260505171008 16 229 0.0 3.2 0.00 0.00 0.00 50 1009.2
20260505170509 16 229 0.0 3.2 0.00 0.00 0.00 49 1009.2
20260505170010 16 229 0.0 3.2 0.00 0.00 0.00 50 1009.1
20260505165507 16 229 0.0 3.2 0.00 0.00 0.00 52 1009.1
20260505165008 16 229 0.0 3.2 0.00 0.00 0.00 50 1009.2
20260505164507 16 229 0.0 3.2 0.00 0.00 0.00 49 1009.2
20260505164008 16 229 0.0 3.2 0.00 0.00 0.00 51 1009.2
20260505163506 16 229 0.0 3.2 0.00 0.00 0.00 53 1009.3
20260505163009 16 229 0.0 3.2 0.00 0.00 0.00 53 1009.3
20260505162505 16 229 0.0 3.2 0.00 0.00 0.00 53 1009.3
20260505162005 16 230 0.0 3.2 0.00 0.00 0.00 53 1009.4
20260505161505 16 293 0.0 3.2 0.00 0.00 0.00 53 1009.3
20260505161005 16 293 0.0 3.2 0.00 0.00 0.00 53 1009.3
20260505160508 17 292 0.0 3.2 0.00 0.00 0.00 54 1009.3
20260505153003 16 165 0.0 3.2 0.00 0.00 0.00 58 1009.8
20260505152502 16 165 0.0 3.2 0.00 0.00 0.00 61 1009.7
20260505152002 16 165 0.0 4.8 0.00 0.00 0.00 59 1009.8
20260505151505 16 165 0.0 4.8 0.00 0.00 0.00 58 1009.9
20260505151002 16 145 1.6 4.8 0.00 0.00 0.00 58 1009.8
20260505150502 16 122 1.6 4.8 0.00 0.00 0.00 58 1009.8
20260505140600 18 50 3.2 9.7 0.00 0.00 0.00 44 1009.4
20260505140109 18 268 1.6 12.9 0.00 0.00 0.00 42 1009.2
20260505124557 20 270 4.8 16.1 0.00 0.00 0.00 36 1008.8
20260505124056 20 230 3.2 16.1 0.00 0.00 0.00 36 1008.8
20260505123556 20 289 6.4 17.7 0.00 0.00 0.00 36 1008.9
20260505123100 20 309 3.2 12.9 0.00 0.00 0.00 36 1008.9
20260505122555 20 251 3.2 25.7 0.00 0.00 0.00 36 1008.9
20260505122056 21 323 6.4 27.4 0.00 0.00 0.00 37 1008.9
20260505121556 21 272 12.9 27.4 0.00 0.00 0.00 36 1008.8
20260505121055 21 287 1.6 9.7 0.00 0.00 0.00 34 1008.9
20260505120557 21 304 1.6 9.7 0.00 0.00 0.00 34 1008.9
20260505120111 21 314 1.6 16.1 0.00 0.00 0.00 35 1008.7
20260505115554 21 291 4.8 16.1 0.00 0.00 0.00 34 1008.8
20260505115054 21 304 6.4 14.5 0.00 0.00 0.00 34 1008.9
20260505114555 21 323 1.6 4.8 0.00 0.00 0.00 34 1008.8
20260505114054 21 196 1.6 3.2 0.00 0.00 0.00 34 1008.9
20260505113558 21 196 0.0 3.2 0.00 0.00 0.00 35 1008.8
20260505113053 21 195 0.0 12.9 0.00 0.00 0.00 33 1008.8
20260505112553 21 295 4.8 16.1 0.00 0.00 0.00 32 1008.8
20260505112054 21 290 6.4 20.9 0.00 0.00 0.00 34 1008.8
20260505111553 21 282 11.3 20.9 0.00 0.00 0.00 32 1008.8
20260505111053 22 304 12.9 19.3 0.00 0.00 0.00 33 1008.8
20260505110555 22 309 9.7 14.5 0.00 0.00 0.00 31 1008.8
20260505110109 22 304 1.6 8.0 0.00 0.00 0.00 34 1008.9
20260505102044 21 314 3.2 9.7 0.00 0.00 0.00 35 1009.5
20260505101543 21 314 4.8 14.5 0.00 0.00 0.00 33 1009.6
20260505101043 21 291 6.4 16.1 0.00 0.00 0.00 33 1009.7
20260505100541 21 320 9.7 16.1 0.00 0.00 0.00 33 1009.7
20260505100041 21 255 6.4 16.1 0.00 0.00 0.00 32 1009.8
20260505095541 21 290 9.7 16.1 0.00 0.00 0.00 33 1009.9
20260505095039 21 309 4.8 12.9 0.00 0.00 0.00 34 1010.0
20260505094537 21 314 1.6 4.8 0.00 0.00 0.00 36 1010.0
20260505094036 21 314 3.2 6.4 0.00 0.00 0.00 32 1010.1
20260505093536 21 344 0.0 4.8 0.00 0.00 0.00 30 1010.2
20260505093035 21 287 1.6 4.8 0.00 0.00 0.00 31 1010.2
20260505092534 20 359 1.6 4.8 0.00 0.00 0.00 31 1010.3
20260505092035 20 125 1.6 6.4 0.00 0.00 0.00 34 1010.3
20260505091533 20 353 3.2 6.4 0.00 0.00 0.00 33 1010.3
20260505091033 20 330 1.6 9.7 0.00 0.00 0.00 34 1010.5
20260505090530 20 286 4.8 9.7 0.00 0.00 0.00 33 1010.5
20260505090029 20 314 1.6 4.8 0.00 0.00 0.00 36 1010.6
20260505085527 20 93 0.0 3.2 0.00 0.00 0.00 34 1010.8
20260505085025 19 14 1.6 8.0 0.00 0.00 0.00 40 1010.8
20260505084527 19 25 3.2 8.0 0.00 0.00 0.00 39 1010.8
20260505084022 18 115 0.0 4.8 0.00 0.00 0.00 42 1011.0
20260505083524 18 115 0.0 4.8 0.00 0.00 0.00 38 1011.1
20260505083020 18 126 1.6 4.8 0.00 0.00 0.00 40 1011.1
20260505082522 18 126 1.6 4.8 0.00 0.00 0.00 43 1011.1
20260505082018 17 126 1.6 3.2 0.00 0.00 0.00 42 1011.3
20260505081521 17 126 0.0 3.2 0.00 0.00 0.00 44 1011.4
20260505081017 17 126 0.0 3.2 0.00 0.00 0.00 45 1011.5
20260505080519 17 126 0.0 3.2 0.00 0.00 0.00 48 1011.5
20260505080015 17 126 0.0 3.2 0.00 0.00 0.00 46 1011.6
20260505075513 17 126 0.0 3.2 0.00 0.00 0.00 46 1011.6
20260505075012 17 126 0.0 3.2 0.00 0.00 0.00 46 1011.7
20260505074513 17 126 0.0 3.2 0.00 0.00 0.00 45 1011.7
20260505074011 17 126 0.0 4.8 0.00 0.00 0.00 47 1011.7
20260505073514 17 126 1.6 4.8 0.00 0.00 0.00 51 1011.8
20260505073008 16 126 1.6 3.2 0.00 0.00 0.00 51 1011.9
20260505072508 16 126 0.0 3.2 0.00 0.00 0.00 48 1012.0
20260505072007 16 126 0.0 3.2 0.00 0.00 0.00 54 1011.9
20260505071504 15 126 0.0 3.2 0.00 0.00 0.00 54 1012.0
20260505071004 15 126 0.0 3.2 0.00 0.00 0.00 57 1012.0
20260505070505 15 126 1.6 3.2 0.00 0.00 0.00 57 1012.1
20260505070004 15 126 0.0 3.2 0.00 0.00 0.00 57 1012.1
20260505065501 15 126 0.0 3.2 0.00 0.00 0.00 56 1012.1
20260505065003 15 126 0.0 3.2 0.00 0.00 0.00 54 1012.2
20260505064501 15 126 0.0 3.2 0.00 0.00 0.00 51 1012.2
20260505064100 15 126 0.0 3.2 0.00 0.00 0.00 51 1012.2
20260505063602 15 126 1.6 3.2 0.00 0.00 0.00 54 1012.3
20260505063104 14 126 0.0 3.2 0.00 0.00 0.00 54 1012.2
20260505062558 14 126 0.0 3.2 0.00 0.00 0.00 59 1012.3
20260505062056 13 126 0.0 1.6 0.00 0.00 0.00 60 1012.3
20260505061557 13 126 0.0 3.2 0.00 0.00 0.00 60 1012.3
20260505061055 13 126 0.0 3.2 0.00 0.00 0.00 55 1012.3
20260505060602 13 126 0.0 4.8 0.00 0.00 0.00 58 1012.4
20260505060055 12 126 1.6 4.8 0.00 0.00 0.00 58 1012.4
20260505055553 12 121 1.6 4.8 0.00 0.00 0.00 64 1012.3
20260505055053 12 159 1.6 4.8 0.00 0.00 0.00 58 1012.4
20260505054552 12 159 1.6 4.8 0.00 0.00 0.00 60 1012.3
20260505054050 12 159 0.0 3.2 0.00 0.00 0.00 62 1012.4
20260505053548 12 159 0.0 3.2 0.00 0.00 0.00 62 1012.4
20260505053048 12 159 0.0 3.2 0.00 0.00 0.00 62 1012.5
20260505052547 11 159 0.0 3.2 0.00 0.00 0.00 58 1012.5
20260505052046 11 159 0.0 3.2 0.00 0.00 0.00 61 1012.6
20260505051544 11 159 0.0 4.8 0.00 0.00 0.00 60 1012.6
20260505051043 11 159 0.0 3.2 0.00 0.00 0.00 61 1012.7
20260505050542 10 159 1.6 3.2 0.00 0.00 0.00 62 1012.8
20260505041532 9 309 1.6 4.8 0.00 0.00 0.00 64 1012.9
20260505041030 9 309 1.6 3.2 0.00 0.00 0.00 64 1012.9
20260505040529 10 309 0.0 3.2 0.00 0.00 0.00 63 1012.9
20260505040030 9 309 0.0 1.6 0.00 0.00 0.00 63 1012.8
20260505035527 9 309 0.0 3.2 0.00 0.00 0.00 63 1012.8
20260505035026 10 309 0.0 3.2 0.00 0.00 0.00 63 1012.8
20260505034527 10 159 0.0 3.2 0.00 0.00 0.00 62 1012.8
20260505034024 10 159 1.6 3.2 0.00 0.00 0.00 61 1012.8
20260505033524 10 159 0.0 3.2 0.00 0.00 0.00 61 1012.8
20260505033024 10 159 0.0 4.8 0.00 0.00 0.00 61 1012.7
20260505032523 10 159 3.2 4.8 0.00 0.00 0.00 61 1012.8
20260505032024 10 162 1.6 3.2 0.00 0.00 0.00 61 1012.8
20260505031521 10 162 1.6 3.2 0.00 0.00 0.00 60 1012.9
20260505031021 10 162 1.6 3.2 0.00 0.00 0.00 59 1012.9
20260505030522 10 162 0.0 3.2 0.00 0.00 0.00 59 1012.9
20260505030037 10 162 0.0 3.2 0.00 0.00 0.00 59 1012.9
20260505025519 10 162 0.0 3.2 0.00 0.00 0.00 59 1013.0
20260505025017 11 162 0.0 3.2 0.00 0.00 0.00 59 1013.0
20260505024518 11 162 0.0 3.2 0.00 0.00 0.00 59 1013.0
20260505024016 11 162 1.6 3.2 0.00 0.00 0.00 58 1013.0
20260505023515 11 162 1.6 3.2 0.00 0.00 0.00 58 1013.1
20260505023015 11 162 0.0 3.2 0.00 0.00 0.00 58 1013.2
20260505022515 11 162 0.0 3.2 0.00 0.00 0.00 58 1013.2
20260505022014 11 162 0.0 3.2 0.00 0.00 0.00 57 1013.2
20260505021518 11 162 0.0 3.2 0.00 0.00 0.00 58 1013.3
20260505021012 11 162 0.0 3.2 0.00 0.00 0.00 58 1013.3
20260505020511 11 162 0.0 0.0 0.00 0.00 0.00 58 1013.4
20260505020011 11 162 0.0 3.2 0.00 0.00 0.00 56 1013.4
20260505015511 11 162 0.0 3.2 0.00 0.00 0.00 56 1013.4
20260505015010 11 162 0.0 4.8 0.00 0.00 0.00 56 1013.4
20260505014515 12 162 1.6 3.2 0.00 0.00 0.00 55 1013.4
20260505014008 12 162 0.0 4.8 0.00 0.00 0.00 55 1013.4
20260505013508 12 162 1.6 4.8 0.00 0.00 0.00 52 1013.4
20260505013016 12 162 0.0 3.2 0.00 0.00 0.00 53 1013.5
20260505012508 12 162 0.0 6.4 0.00 0.00 0.00 55 1013.5
20260505012008 12 162 3.2 6.4 0.00 0.00 0.00 55 1013.5
20260505011506 12 180 3.2 4.8 0.00 0.00 0.00 55 1013.6
20260505011005 12 208 0.0 0.0 0.00 0.00 0.00 56 1013.6
20260505010504 12 208 0.0 1.6 0.00 0.00 0.00 55 1013.6
20260505010005 12 208 0.0 1.6 0.00 0.00 0.00 52 1013.7
20260505005507 12 208 0.0 3.2 0.00 0.00 0.00 53 1013.7
20260505005004 12 208 0.0 3.2 0.00 0.00 0.00 53 1013.7
20260505004508 12 208 0.0 3.2 0.00 0.00 0.00 53 1013.7
20260505004002 12 208 0.0 3.2 0.00 0.00 0.00 53 1013.8
20260505003501 12 208 1.6 3.2 0.00 0.00 0.00 53 1013.8
20260505003102 13 208 1.6 3.2 0.00 0.00 0.00 51 1013.8